Andover, NJ

6:02 AM EDT on August 18, 2017 (GMT -0400)
Andover

Weather History for K12N - February, 2014

Change the Weather History Date:

Wednesday, February 19, 2014

  Actual Average (KFWN) Record (KFWN)
Temperature  
Mean Temperature 26 °F -  
Max Temperature 41 °F 38 °F 66 °F (1981)
Min Temperature 12 °F 17 °F -16 °F (1979)
Degree Days  
Heating Degree Days 38    
Moisture  
Dew Point 25 °F    
Average Humidity 89    
Maximum Humidity 100    
Minimum Humidity 60    
Precipitation  
Precipitation 0.35 in - - ()
Sea Level Pressure  
Sea Level Pressure 29.92 in    
Wind  
Wind Speed 1 mph (NE)    
Max Wind Speed 7 mph    
Max Gust Speed -    
Averages and records for this station are not official NWS values.
T = Trace of Precipitation, MM = Missing Value Source: NWS Daily Summary

Daily Weather History Graph

Daily Weather History Graph

Search for Another Location

Airport or City:

Trip Planner

Search our weather history database for the weather conditions in past years. The results will help you decide how hot, cold, wet, or windy it might be!

Date:

Astronomy

Feb. 19, 2014 Rise Set
Actual Time 6:47 AM EST 5:38 PM EST
Civil Twilight 6:19 AM EST 6:06 PM EST
Nautical Twilight 5:47 AM EST 6:38 PM EST
Astronomical Twilight 5:16 AM EST 7:10 PM EST
Moon 10:31 PM EST (2/19) 8:50 AM EST (2/19)
Length of Visible Light 11h 46m
Length of Day
10h 50m
Waning Gibbous, 80% of the Moon is Illuminated
Feb 19
Waning Gibbous
Feb 22
Last Quarter
Mar 1
New
Mar 8
First Quarter
Mar 16
Full

Hourly Weather History & Observations

Time (EST) Temp. Windchill Dew Point Humidity Pressure Visibility Wind Dir Wind Speed Gust Speed Precip Events Conditions
12:54 AM 12.9 °F - 10.9 °F 92% 30.12 in - Calm Calm - N/A   Unknown
1:54 AM 12.9 °F - 10.0 °F 88% 30.11 in - Calm Calm - N/A   Unknown
2:54 AM 12.9 °F - 10.9 °F 92% 30.10 in - Calm Calm - N/A   Unknown
3:54 AM 12.9 °F - 10.9 °F 92% 30.08 in - Calm Calm - N/A   Unknown
4:54 AM 12.9 °F 6.9 °F 10.0 °F 88% 30.04 in - NE 3.5 mph - N/A   Unknown
5:54 AM 12.9 °F 6.9 °F 10.0 °F 88% 29.99 in - NE 3.5 mph - N/A   Unknown
6:54 AM 12.9 °F - 10.9 °F 92% 29.97 in - Calm Calm - N/A   Unknown
7:54 AM 26.1 °F - 21.9 °F 84% 29.94 in - Calm Calm - N/A   Unknown
8:54 AM 34.0 °F - 27.0 °F 75% 29.94 in - Calm Calm - N/A   Unknown
9:54 AM 35.1 °F 32.2 °F 28.0 °F 76% 29.94 in - Variable 3.5 mph - N/A   Unknown
10:54 AM 34.0 °F 31.0 °F 32.0 °F 92% 29.86 in - Variable 3.5 mph - 0.14 in   Unknown
11:54 AM 35.1 °F 32.2 °F 34.0 °F 96% 29.82 in - WSW 3.5 mph - 0.20 in   Unknown
12:54 PM 35.1 °F - 34.0 °F 96% 29.78 in - Calm Calm - 0.01 in   Unknown
1:54 PM 36.0 °F 32.1 °F 35.1 °F 97% 29.75 in - NNE 4.6 mph - N/A   Unknown
2:54 PM 36.0 °F 31.1 °F 34.0 °F 93% 29.73 in - NE 5.8 mph - N/A   Unknown
3:54 PM 36.0 °F - 34.0 °F 93% 29.74 in - Calm Calm - N/A   Unknown
4:54 PM 37.0 °F - 35.1 °F 93% 29.76 in - Calm Calm - N/A   Unknown
5:54 PM 36.0 °F - 34.0 °F 93% 29.81 in - Calm Calm - N/A   Unknown
6:54 PM 34.0 °F - 33.1 °F 96% 29.84 in - Calm Calm - N/A   Unknown
7:54 PM 35.1 °F 32.2 °F 34.0 °F 96% 29.88 in - SSW 3.5 mph - N/A   Unknown
8:54 PM 33.1 °F - 33.1 °F 100% 29.92 in - Calm Calm - N/A   Unknown
9:54 PM 33.1 °F - 32.0 °F 96% 29.96 in - Calm Calm - N/A   Unknown
10:54 PM 41.0 °F 36.4 °F 30.0 °F 65% 30.00 in - Variable 6.9 mph - N/A   Unknown
11:54 PM 39.9 °F 37.8 °F 27.0 °F 60% 30.04 in - Variable 3.5 mph - N/A   Unknown